Terminal Aerodrome Forecast
Issued by NWS Flagstaff, AZ

Home | Current Version | Previous Version | Text Only | Print | Product List | Glossary On
Versions: 1 2 3 4 5 6 7 8 9 10 11 12 13 14 15 16 17 18 19
000
FTUS45 KFGZ 260200 AAC
TAFINW
TAF AMD
KINW 260235Z 2603/2624 30010KT P6SM VCTS BKN100CB
      TEMPO 2603/2604 VRB20G30KT 5SM -TSRA BKN080CB
     FM260400 VRB06KT P6SM FEW120 SCT200=

USA.gov is the U.S. government's official web portal to all federal, state and local government web resources and services.